Back to catalog

COSMOS 1818 COOLANT

LostLEO
NORAD 50790·DEBRIS·🇷🇺 Russia

Launched Feb 1, 1987 from Baikonur Cosmodrome

Loading…

Next Passes (next 24 hours)

TLE

StaleSource: Space-Track

Epoch: Sep 7, 2022, 01:01 UTC

1 50790U 87011BF  22250.04246707  .00000326  00000-0  15032-3 0  9994
2 50790  65.0044 106.0999 0013846 254.3863 181.3675 14.34677136583839

Track COSMOS 1818 COOLANT in real time with AllMySat

Download on the App Store